Kosmos-678

operational
NORAD ID: 7436 Int'l Des: 1974-072 Owner: GUKOSR Country: SU
LEOCIRCULAR

Kosmos-678について

説明を読み込み中...

リアルタイム位置

3D地球を読み込み中...

次回通過

高度履歴

Altitude vs Time

uPlot chart will show altitude changes over time

軌道要素

1 7436U 74072B 26062.18899832 .00000010 00000-0 18749-3 0 9997
2 7436 74.0348 131.7774 0041529 167.3943 224.1948 12.41798646332446
Epoch: Mar 3, 2026 • Age: 19 hours

現在のステータス

高度 1468.1 km
速度 7.14 km/s
衛星直下点 7.74°N, 135.11°W
タイプ other

大規模コンステレーション

Loading constellations...